Location: Caracas
(10.5000°N, 66.9170°W)
Time: 01:32:12
(UTC-04:00)

Hubble Space Telescope - Visible Passes

Search period start: 23 November 2017 00:00
Search period end: 03 December 2017 00:00
Orbit: 537 x 541 km, 28.5° (Epoch: 22 November)

Date Brightness Start Highest point End Pass type
(mag) Time Alt. Az. Time Alt. Az. Time Alt. Az.
25 Nov 3.1 05:59:38 10° NNW 06:01:44 14° NNE 06:03:50 10° NE visible
26 Nov 2.9 05:48:57 10° NNW 05:51:39 17° NNE 05:54:21 10° ENE visible
27 Nov 2.6 05:38:28 10° NNW 05:41:33 21° NNE 05:44:42 10° ENE visible
28 Nov 2.3 05:28:57 16° NNW 05:31:25 27° NNE 05:34:56 10° E visible
28 Nov 3.1 19:09:08 10° S 19:10:34 11° SSE 19:11:40 11° SE visible
29 Nov 1.8 05:19:26 23° NNW 05:21:15 35° NNE 05:25:03 10° E visible
29 Nov 2.8 18:57:43 10° S 19:00:21 16° SSE 19:02:11 13° ESE visible
29 Nov 4.0 20:37:18 10° WSW 20:37:33 11° WSW 20:37:33 11° WSW visible
30 Nov 1.3 05:09:56 37° NNW 05:11:05 48° NNE 05:15:03 10° ESE visible
30 Nov 2.4 18:46:50 10° SSW 18:50:07 22° SSE 18:52:42 13° ESE visible
30 Nov 3.6 20:27:09 10° WSW 20:28:05 16° WSW 20:28:05 16° WSW visible
01 Dec 0.7 05:00:27 62° NNW 05:00:52 68° NNE 05:04:58 10° ESE visible
01 Dec 1.9 18:36:12 10° SSW 18:39:53 31° SSE 18:43:14 12° E visible
01 Dec 3.2 20:17:06 10° W 20:18:36 20° W 20:18:36 20° W visible
02 Dec 0.8 04:50:59 75° SE 04:50:59 75° SE 04:54:47 10° ESE visible
02 Dec 1.4 18:25:42 10° SW 18:29:39 44° SSE 18:33:37 10° ENE visible
02 Dec 2.9 20:07:09 10° W 20:09:07 22° WNW 20:09:07 22° WNW visible
